Location: Newark
(25.1987°N, 100.3705°W)
Time: 11:56:37
(UTC+00:00)

ISS - Pass Details

Date: 11 April 2020
Orbit: 417 x 419 km, 51.6° (Epoch: 03 June)

Event Time Altitude Azimuth Distance (km) Brightness Sun altitude
Rises 02:04:31 0° 299° (WNW) 2,353 1.8 -14.5°
Reaches altitude 10° 02:07:03 10° 279° (W) 1,486 0.4 -15.1°
Maximum altitude 02:09:23 18° 235° (SW) 1,100 -1.2 -15.6°
Drops below altitude 10° 02:11:43 10° 190° (S) 1,480 -1.1 -16.1°
Enters shadow 02:12:37 - 181° (S) 1,758 -0.8 -16.3°
